DateTimeUTC,F1_A11,F1_S11,BsB_S11,BsG_S11,BsR_S11,BbsB_S11,BbsG_S11,BbsR_S11,BaB_A11,BaG_A11,BaR_A11,T_S11,U_S11,P_S11,T1_A11
2020-11-29T00:00:00Z,00000380,21000600,,,,,,,,,,20.9,00.0,0642.3,30.6
2020-11-29T00:01:00Z,00000380,21000600,,,,,,,,,,20.9,00.0,0642.3,30.6
2020-11-29T00:02:00Z,00000380,21000600,,,,,,,,,,21.0,00.0,0642.3,30.6
2020-11-29T00:03:00Z,00000380,61000600,,,,,,,,,,21.0,00.0,0642.4,30.6
2020-11-29T00:04:00Z,00000380,41000600,0001.06,0001.02,0000.23,0000.22,-000.05,0000.56,0000.21,0000.35,0000.04,20.8,00.0,0643.2,30.6
2020-11-29T00:05:00Z,00000380,01000600,0001.52,0000.96,0000.83,0000.60,0000.47,0000.08,0000.02,0000.14,0000.15,20.7,00.0,0643.3,30.6
2020-11-29T00:06:00Z,00000380,01000600,0001.12,0001.33,0000.65,0000.27,0000.06,0000.28,0000.32,0000.17,0000.19,20.7,00.0,0643.2,30.6
2020-11-29T00:07:00Z,00000380,01000600,0002.53,0001.59,0000.77,-000.10,-000.02,0000.01,0000.35,0000.33,0000.31,20.7,00.0,0643.3,30.5
2020-11-29T00:08:00Z,00000380,01000600,0001.47,0000.89,0000.79,0000.31,0000.41,0000.38,0000.16,0000.17,0000.04,20.7,00.0,0643.3,30.5
2020-11-29T00:09:00Z,00000380,01000600,0000.92,0001.53,0000.51,0000.60,0000.14,0000.25,0000.16,0000.18,0000.17,20.7,00.0,0643.3,30.5
2020-11-29T00:10:00Z,00000380,01000600,0001.39,0001.07,0000.80,0000.21,0000.54,0000.41,-000.12,0000.07,0000.07,20.7,00.0,0643.3,30.5
2020-11-29T00:11:00Z,00000380,01000600,0001.74,0001.00,0001.42,-000.17,0000.11,0000.29,0000.17,-000.15,-000.05,20.7,00.0,0643.3,30.5
2020-11-29T00:12:00Z,00000380,01000600,0001.74,0000.85,0000.78,0000.41,-000.10,0000.09,-000.06,0000.04,0000.08,20.7,00.0,0643.3,30.5
2020-11-29T00:13:00Z,00000380,01000600,0000.50,0000.98,0000.42,-000.07,0000.12,0000.11,0000.14,0000.11,0000.11,20.7,00.0,0643.3,30.6
2020-11-29T00:14:00Z,00000380,01000600,0001.46,0000.98,0001.13,0001.06,0000.48,0000.31,0000.11,0000.23,-000.01,20.7,00.0,0643.3,30.6
2020-11-29T00:15:00Z,00000380,01000600,0002.04,0001.40,0000.89,0000.35,-000.13,0000.34,-000.03,-000.30,-000.06,20.7,00.0,0643.3,30.6
2020-11-29T00:16:00Z,00000380,01000600,0001.53,0000.78,0000.81,0000.12,0000.49,-000.10,0000.25,0000.29,0000.03,20.7,00.0,0643.4,30.5
2020-11-29T00:17:00Z,00000380,01000600,0002.32,0001.32,0000.76,0000.49,-000.04,0000.05,-000.06,0000.02,0000.16,20.7,00.0,0643.4,30.6
2020-11-29T00:18:00Z,00000380,01000600,0001.01,0000.75,0000.59,0001.15,-000.12,-000.13,0000.21,0000.27,0000.10,20.7,00.0,0643.4,30.6
2020-11-29T00:19:00Z,00000380,01000600,0001.80,0000.67,0001.03,0000.87,-000.07,0000.21,-000.11,-000.08,-000.04,20.7,00.0,0643.3,30.6
2020-11-29T00:20:00Z,00000380,01000600,0001.50,0000.93,0000.68,-000.81,-000.02,0000.13,0000.17,0000.23,0000.21,20.7,00.0,0643.3,30.6
2020-11-29T00:21:00Z,00000380,01000600,0001.77,0000.82,0000.87,0001.16,0000.03,0000.15,0000.29,0000.17,0000.11,20.7,00.0,0643.3,30.6
2020-11-29T00:22:00Z,00000380,01000600,0000.91,0001.29,0000.54,0000.91,-000.25,-000.10,0000.18,0000.13,0000.03,20.6,00.0,0643.3,30.5
2020-11-29T00:23:00Z,00000380,01000600,0002.37,0001.13,0000.46,0001.34,0000.03,-000.14,0000.02,0000.10,0000.17,20.6,00.0,0643.3,30.5
2020-11-29T00:24:00Z,00000380,01000600,0002.65,0000.90,0000.56,0000.01,0000.51,0000.20,0000.06,-000.01,-000.03,20.6,00.0,0643.4,30.5
2020-11-29T00:25:00Z,00000380,01000600,0001.36,0000.55,0000.48,0000.89,-000.01,0000.31,-000.06,-000.00,0000.06,20.7,00.0,0643.4,30.5
2020-11-29T00:26:00Z,00000380,01000600,0002.15,0001.01,0000.89,0000.67,0000.20,-000.14,-000.05,0000.01,0000.10,20.7,00.0,0643.4,30.5
2020-11-29T00:27:00Z,00000380,01000600,0000.15,0001.09,0000.72,0001.27,0000.18,0000.19,0000.09,0000.10,-000.09,20.7,00.0,0643.5,30.6
2020-11-29T00:28:00Z,00000380,01000600,0000.92,0001.57,0001.24,0000.11,0000.40,-000.07,0000.15,0000.01,0000.12,20.7,00.0,0643.5,30.5
2020-11-29T00:29:00Z,00000380,01000600,0002.64,0000.67,0000.52,0001.03,0000.09,0000.38,0000.19,0000.24,0000.09,20.7,00.0,0643.5,30.5
2020-11-29T00:30:00Z,00000380,01000600,0000.86,0001.38,0000.49,0001.07,0000.36,0000.11,0000.07,-000.12,0000.09,20.7,00.0,0643.5,30.5
2020-11-29T00:31:00Z,00000380,01000600,0003.34,0001.32,0000.32,0000.21,0000.18,0000.08,0000.06,0000.18,0000.02,20.7,00.0,0643.5,30.5
2020-11-29T00:32:00Z,00000380,01000600,0001.84,0001.41,0000.91,0001.31,0000.14,0000.06,0000.03,0000.09,0000.03,20.7,00.0,0643.5,30.6
2020-11-29T00:33:00Z,00000380,01000600,0001.01,0000.90,0000.87,0000.87,-000.08,0000.06,-000.06,-000.05,-000.03,20.7,00.0,0643.6,30.6
2020-11-29T00:34:00Z,00000380,01000600,0001.10,0000.84,0000.49,0000.52,0000.12,-000.06,-000.02,0000.09,-000.00,20.7,00.0,0643.6,30.6
2020-11-29T00:35:00Z,00000380,01000600,0000.02,0001.13,0000.73,0000.61,0000.09,0000.25,0000.12,-000.15,0000.07,20.8,00.0,0643.6,30.6
2020-11-29T00:36:00Z,00000380,01000600,0001.43,0000.76,0000.78,0000.22,-000.08,0000.10,0000.05,0000.26,0000.10,20.7,00.0,0643.6,30.6
2020-11-29T00:37:00Z,00000380,01000600,0001.40,0001.13,0001.27,0000.61,-000.10,0000.38,0000.22,0000.04,0000.12,20.7,00.0,0643.6,30.6
2020-11-29T00:38:00Z,00000380,01000600,0001.13,0001.09,0000.18,0000.18,0000.33,-000.13,0000.08,0000.12,0000.15,20.7,00.0,0643.6,30.6
2020-11-29T00:39:00Z,00000380,01000600,0000.44,0000.73,0000.84,-000.11,-000.19,-000.28,0000.14,0000.22,0000.00,20.7,00.0,0643.6,30.6
2020-11-29T00:40:00Z,00000380,01000600,0001.20,0001.00,0000.72,0001.12,0000.03,-000.15,0000.09,-000.02,-000.07,20.7,00.0,0643.6,30.6
2020-11-29T00:41:00Z,00000380,01000600,0001.41,0001.22,0001.16,-000.00,0000.16,0000.07,0000.26,0000.15,0000.24,20.7,00.0,0643.6,30.6
2020-11-29T00:42:00Z,00000380,01000600,0002.25,0000.98,0001.52,-000.12,0000.02,0000.42,0000.01,0000.01,-000.01,20.8,00.0,0643.6,30.6
2020-11-29T00:43:00Z,00000380,01000600,0001.76,0000.83,0000.60,0000.94,-000.00,-000.27,-000.03,0000.05,0000.15,20.8,00.0,0643.6,30.6
2020-11-29T00:44:00Z,00000380,01000600,0001.58,0001.05,0000.66,0000.37,0000.37,-000.10,0000.15,0000.11,-000.06,20.8,00.0,0643.6,30.6
2020-11-29T00:45:00Z,00000380,01000600,0001.34,0000.85,0001.26,0000.28,-000.13,0000.33,0000.02,0000.19,0000.17,20.8,00.0,0643.6,30.6
2020-11-29T00:46:00Z,00000380,01000600,0001.45,0000.65,0000.70,0001.50,-000.07,0000.21,0000.08,-000.00,0000.03,20.8,00.0,0643.6,30.6
2020-11-29T00:47:00Z,00000380,01000600,0000.49,0001.31,0000.72,0000.83,0000.07,0000.04,-000.06,0000.03,-000.00,20.8,00.0,0643.6,30.6
2020-11-29T00:48:00Z,00000380,01000600,0001.75,0001.00,0000.95,0000.90,0000.11,0000.03,-000.08,-000.05,-000.08,20.8,00.0,0643.6,30.6
2020-11-29T00:49:00Z,00000380,01000600,0001.46,0001.32,0000.69,0000.58,0000.05,0000.41,0000.07,-000.02,0000.09,20.8,00.0,0643.6,30.6
2020-11-29T00:50:00Z,00000380,01000600,0002.09,0001.65,0000.76,-000.21,0000.31,0000.00,0000.06,0000.14,0000.12,20.8,00.0,0643.6,30.6
2020-11-29T00:51:00Z,00000380,01000600,0001.99,0000.45,0000.74,0000.30,0000.19,0000.40,0000.21,0000.20,-000.02,20.8,00.0,0643.6,30.6
2020-11-29T00:52:00Z,00000380,01000600,0001.16,0001.69,0000.69,0000.34,0000.09,0000.30,0000.01,-000.17,0000.03,20.7,00.0,0643.5,30.6
2020-11-29T00:53:00Z,00000380,01000600,0002.69,0000.83,0000.60,0000.07,0000.06,0000.19,-000.06,0000.10,-000.04,20.7,00.0,0643.5,30.6
2020-11-29T00:54:00Z,00000380,01000600,0002.24,0001.33,0000.89,0001.05,0000.56,0000.33,0000.03,-000.00,-000.08,20.7,00.0,0643.6,30.5
2020-11-29T00:55:00Z,00000380,01000600,0002.23,0001.04,0000.62,0000.35,0000.08,-000.14,0000.08,-000.18,0000.10,20.7,00.0,0643.6,30.5
2020-11-29T00:56:00Z,00000380,01000600,-001.05,0001.32,0000.33,0000.45,0000.36,-000.17,0000.04,0000.22,0000.19,20.7,00.0,0643.6,30.6
2020-11-29T00:57:00Z,00000380,41000600,,,,,,,,,,20.7,00.0,0643.6,30.6
2020-11-29T00:58:00Z,00000380,61000600,,,,,,,,,,20.9,00.0,0642.7,30.6
2020-11-29T00:59:00Z,00000380,21000600,,,,,,,,,,21.0,00.0,0642.7,30.6
2020-11-29T01:00:00Z,00000380,21000600,,,,,,,,,,21.0,00.0,0642.7,30.6
2020-11-29T01:01:00Z,00000380,21000600,,,,,,,,,,21.0,00.0,0642.7,30.6
2020-11-29T01:02:00Z,00000380,21000600,,,,,,,,,,21.1,00.0,0642.7,30.6
2020-11-29T01:03:00Z,00000380,61000600,,,,,,,,,,21.1,00.0,0642.7,30.6
2020-11-29T01:04:00Z,00000380,41000600,0001.28,0000.31,-000.07,-000.02,0000.25,0000.62,-000.13,0000.21,0000.24,20.9,00.0,0643.6,30.6
2020-11-29T01:05:00Z,00000380,01000600,-000.60,0000.43,0000.69,0000.53,0000.32,0000.19,0000.20,0000.20,-000.04,20.9,00.0,0643.7,30.6
2020-11-29T01:06:00Z,00000380,01000600,0000.77,0000.57,0001.06,-000.02,0000.32,0000.55,0000.10,0000.10,0000.16,20.9,00.0,0643.7,30.6
2020-11-29T01:07:00Z,00000380,01000600,0000.26,0000.58,0000.48,0000.45,0000.08,0000.31,0000.04,-000.13,-000.06,20.8,00.0,0643.6,30.6
2020-11-29T01:08:00Z,00000380,01000600,0000.58,0000.41,0000.27,0000.25,0000.12,0000.18,0000.02,0000.20,0000.00,20.8,00.0,0643.6,30.6
2020-11-29T01:09:00Z,00000380,01000600,0000.28,0001.29,0000.46,0000.21,0000.08,0000.34,-000.00,-000.13,0000.02,20.8,00.0,0643.6,30.6
2020-11-29T01:10:00Z,00000380,01000600,0001.88,0000.92,0000.71,-000.78,-000.07,0000.30,0000.02,-000.02,0000.09,20.8,00.0,0643.6,30.6
2020-11-29T01:11:00Z,00000380,01000600,0000.39,0000.76,0000.31,0000.79,0000.12,0000.40,0000.24,0000.20,-000.02,20.8,00.0,0643.6,30.6
2020-11-29T01:12:00Z,00000380,01000600,0001.72,0000.64,0000.49,-000.60,0000.40,0000.37,-000.03,-000.03,0000.04,20.8,00.0,0643.6,30.6
2020-11-29T01:13:00Z,00000380,01000600,0001.44,0000.28,0000.24,-000.44,0000.14,0000.14,-000.03,0000.21,0000.09,20.8,00.0,0643.6,30.6
2020-11-29T01:14:00Z,00000380,01000600,0001.33,0000.41,0000.76,0000.57,-000.08,0000.38,0000.20,0000.14,0000.03,20.8,00.0,0643.6,30.6
2020-11-29T01:15:00Z,00000380,01000600,0000.24,0000.71,0000.63,0000.22,0000.57,0000.32,0000.16,0000.05,0000.25,20.9,00.0,0643.6,30.6
2020-11-29T01:16:00Z,00000380,01000600,-000.94,0001.24,0000.45,0000.10,0000.42,0000.31,0000.28,0000.18,0000.11,20.9,00.0,0643.6,30.6
2020-11-29T01:17:00Z,00000380,01000600,0002.03,0000.04,0000.99,0000.36,0000.34,0000.51,0000.10,0000.17,0000.05,20.9,00.0,0643.6,30.6
2020-11-29T01:18:00Z,00000380,01000600,0000.43,0000.31,0000.69,0000.56,0000.24,0000.23,0000.13,0000.12,0000.22,20.9,00.0,0643.6,30.6
2020-11-29T01:19:00Z,00000380,01000600,0000.71,0000.88,0000.66,-000.30,-000.00,0000.61,0000.31,0000.31,0000.17,20.9,00.0,0643.6,30.6
2020-11-29T01:20:00Z,00000380,01000600,0000.02,0000.44,0000.73,-000.37,0000.35,0000.20,0000.09,0000.18,0000.09,20.9,00.0,0643.6,30.6
2020-11-29T01:21:00Z,00000380,01000600,0000.55,0000.71,0000.54,0000.18,0000.47,0000.30,0000.16,-000.02,0000.15,20.8,00.0,0643.6,30.6
2020-11-29T01:22:00Z,00000380,01000600,0000.95,0000.88,0000.31,-000.43,0000.12,-000.05,0000.24,0000.26,0000.04,20.8,00.0,0643.6,30.6
2020-11-29T01:23:00Z,00000380,01000600,0000.94,0001.26,0000.63,0000.38,-000.33,0000.18,0000.02,0000.07,0000.19,20.8,00.0,0643.6,30.5
2020-11-29T01:24:00Z,00000380,01000600,0000.24,0000.60,0000.13,0000.40,-000.02,0000.50,0000.08,0000.01,-000.12,20.8,00.0,0643.6,30.5
2020-11-29T01:25:00Z,00000380,01000600,0000.52,0000.81,0000.67,-000.61,0000.31,0000.33,-000.07,0000.01,-000.00,20.8,00.0,0643.6,30.5
2020-11-29T01:26:00Z,00000380,01000600,0002.19,-000.01,0000.21,0000.47,0000.32,0000.40,0000.13,-000.02,0000.20,20.8,00.0,0643.6,30.5
2020-11-29T01:27:00Z,00000380,01000600,-000.11,0000.41,0000.14,-000.62,0000.45,0000.17,-000.09,0000.01,-000.11,20.8,00.0,0643.7,30.5
2020-11-29T01:28:00Z,00000380,01000600,0001.55,0000.95,0000.53,0000.38,0000.01,0000.20,0000.16,0000.08,-000.02,20.8,00.0,0643.7,30.5
2020-11-29T01:29:00Z,00000380,01000600,-000.04,0000.77,0000.29,-000.50,-000.03,0000.24,-000.00,-000.07,-000.01,20.8,00.0,0643.7,30.6
2020-11-29T01:30:00Z,00000380,01000600,0000.81,0000.94,0000.37,-000.04,0000.48,0000.31,0000.01,0000.11,0000.02,20.8,00.0,0643.7,30.6
2020-11-29T01:31:00Z,00000380,01000600,0000.68,0000.43,0000.51,0001.04,-000.04,0000.65,0000.09,0000.14,0000.23,20.8,00.0,0643.7,30.6
2020-11-29T01:32:00Z,00000380,01000600,0000.94,0000.56,0000.80,0000.19,0000.34,0000.38,0000.04,-000.01,-000.10,20.8,00.0,0643.7,30.6
2020-11-29T01:33:00Z,00000380,01000600,-000.21,0000.68,0000.52,-000.47,0000.20,0000.47,0000.14,0000.13,0000.13,20.8,00.0,0643.7,30.6
2020-11-29T01:34:00Z,00000380,01000600,0000.49,0000.48,0000.16,-000.22,0000.47,0000.39,-000.13,-000.03,0000.02,20.8,00.0,0643.7,30.6
2020-11-29T01:35:00Z,00000380,01000600,0001.91,0000.69,0000.28,0000.21,0000.19,-000.16,0000.02,-000.09,-000.06,20.9,00.0,0643.7,30.6
2020-11-29T01:36:00Z,00000380,01000600,0000.84,0000.73,0000.71,-000.11,0000.65,0000.54,-000.11,-000.03,-000.11,20.8,00.0,0643.7,30.6
2020-11-29T01:37:00Z,00000380,01000600,0001.52,0000.75,0000.13,0000.98,0000.20,0000.26,0000.07,0000.02,0000.04,20.8,00.0,0643.7,30.6
2020-11-29T01:38:00Z,00000380,01000600,0000.87,0000.56,0000.92,0000.45,-000.10,0000.08,-000.02,-000.07,-000.02,20.8,00.0,0643.7,30.5
2020-11-29T01:39:00Z,00000380,01000600,-000.07,0000.66,0000.61,-000.42,0000.25,0000.27,-000.05,0000.12,0000.04,20.8,00.0,0643.7,30.5
2020-11-29T01:40:00Z,00000380,01000600,0001.32,0000.31,0000.57,-000.18,-000.10,0000.45,0000.07,0000.06,-000.07,20.8,00.0,0643.7,30.5
2020-11-29T01:41:00Z,00000380,01000600,0000.46,0000.83,0000.27,0000.60,0000.55,0000.59,0000.10,-000.11,0000.18,20.8,00.0,0643.7,30.5
2020-11-29T01:42:00Z,00000380,01010600,0000.20,0000.99,0000.36,0000.03,0000.44,0000.09,-000.02,0000.15,-000.06,20.8,00.0,0643.8,30.5
2020-11-29T01:43:00Z,00000380,01000600,0001.83,0000.91,0000.50,0001.00,0000.43,0000.22,-000.09,-000.25,-000.02,20.8,00.0,0643.8,30.5
2020-11-29T01:44:00Z,00000380,01000600,0000.26,0000.09,0000.47,0000.06,0000.16,0000.40,-000.10,0000.09,-000.13,20.8,00.0,0643.8,30.6
2020-11-29T01:45:00Z,00000380,01000600,-000.16,0000.10,0000.78,-000.15,-000.05,-000.02,0000.16,0000.12,0000.11,20.8,00.0,0643.8,30.6
2020-11-29T01:46:00Z,00000380,01000600,-000.07,0000.21,0000.25,-000.63,-000.10,0000.10,-000.01,-000.08,0000.06,20.9,00.0,0643.8,30.6
2020-11-29T01:47:00Z,00000380,01000600,-000.64,0000.97,0000.30,-000.06,0000.53,0000.31,0000.10,0000.06,-000.21,20.9,00.0,0643.8,30.6
2020-11-29T01:48:00Z,00000380,01000600,0000.78,0000.92,0000.86,0000.61,0000.10,0000.32,0000.02,0000.06,0000.21,20.9,00.0,0643.8,30.6
2020-11-29T01:49:00Z,00000380,01000600,0002.43,0000.55,0000.73,-000.45,0000.52,0000.16,0000.08,0000.03,0000.13,20.9,00.0,0643.8,30.6
2020-11-29T01:50:00Z,00000380,01000600,0000.51,0000.54,0000.57,-000.20,0000.51,0000.14,-000.09,-000.03,0000.03,20.8,00.0,0643.8,30.6
2020-11-29T01:51:00Z,00000380,01000600,0000.96,0000.54,0000.34,0000.16,0000.17,0000.16,0000.18,0000.10,-000.06,20.8,00.0,0643.7,30.6
2020-11-29T01:52:00Z,00000380,01000600,0000.17,0000.83,0000.88,0000.70,0000.01,0000.16,0000.13,0000.15,0000.07,20.8,00.0,0643.7,30.6
2020-11-29T01:53:00Z,00000380,01000600,0000.85,0000.26,0000.94,-000.29,0000.36,0000.18,0000.15,0000.14,0000.22,20.8,00.0,0643.7,30.6
2020-11-29T01:54:00Z,00000380,01000600,0001.11,0000.35,0000.62,-000.95,0000.18,0000.23,0000.08,0000.04,0000.00,20.8,00.0,0643.7,30.6
2020-11-29T01:55:00Z,00000380,01000600,0001.05,0000.60,0001.00,-000.21,0000.61,0000.36,-000.04,-000.08,-000.13,20.8,00.0,0643.8,30.6
2020-11-29T01:56:00Z,00000380,01000600,-000.08,-000.00,0000.07,-000.06,0000.75,0000.15,0000.12,0000.13,0000.12,20.8,00.0,0643.8,30.6
2020-11-29T01:57:00Z,00000380,41000600,,,,,,,,,,20.8,00.0,0643.7,30.6
2020-11-29T01:58:00Z,00000380,61000600,,,,,,,,,,21.0,00.0,0642.8,30.5
2020-11-29T01:59:00Z,00000380,21000600,,,,,,,,,,21.1,00.0,0642.8,30.6
2020-11-29T02:00:00Z,00000380,21000600,,,,,,,,,,21.1,00.0,0642.8,30.6
2020-11-29T02:01:00Z,00000380,21000600,,,,,,,,,,21.1,00.0,0642.8,30.6
2020-11-29T02:02:00Z,00000380,21000600,,,,,,,,,,21.1,00.0,0642.8,30.6
2020-11-29T02:03:00Z,00000380,61000600,,,,,,,,,,21.1,00.0,0642.8,30.6
2020-11-29T02:04:00Z,00000380,41000600,0001.08,0000.67,0000.44,0000.19,-000.12,-000.08,-000.02,0000.16,-000.00,21.0,00.0,0643.7,30.6
2020-11-29T02:05:00Z,00000380,01000600,0000.41,0000.74,0000.57,0000.51,0000.19,0000.17,0000.25,0000.30,0000.21,20.9,00.0,0643.7,30.6
2020-11-29T02:06:00Z,00000380,01000600,0001.72,0000.90,0000.62,0000.17,-000.06,0000.34,0000.37,0000.26,0000.18,20.9,00.0,0643.7,30.6
2020-11-29T02:07:00Z,00000380,01000600,0001.48,0001.67,0000.66,0000.70,0000.05,0000.35,0000.18,0000.12,0000.15,20.8,00.0,0643.7,30.6
2020-11-29T02:08:00Z,00000380,01000600,0001.93,0001.31,0000.80,0000.56,0000.18,0000.14,0000.08,0000.08,0000.09,20.9,00.0,0643.7,30.6
2020-11-29T02:09:00Z,00000380,01000600,0002.34,0001.25,0000.64,-000.43,0000.45,0000.16,0000.08,-000.05,0000.02,20.9,00.0,0643.7,30.6
2020-11-29T02:10:00Z,00000380,01000600,0001.39,0000.79,0000.31,0000.09,0000.13,0000.27,-000.02,0000.08,-000.00,20.9,00.0,0643.7,30.6
2020-11-29T02:11:00Z,00000380,01000600,0001.79,0000.80,0000.66,0000.21,0000.46,-000.06,0000.13,0000.10,-000.06,20.9,00.0,0643.7,30.6
2020-11-29T02:12:00Z,00000380,01000600,0000.85,0000.91,0000.64,0000.45,-000.13,0000.41,-000.10,0000.02,-000.05,20.9,00.0,0643.8,30.6
2020-11-29T02:13:00Z,00000380,01000600,0001.29,0000.93,0000.55,-000.34,0000.62,-000.07,0000.17,0000.10,0000.29,20.9,00.0,0643.8,30.6
2020-11-29T02:14:00Z,00000380,01000600,0001.20,0001.09,0000.69,0000.31,-000.23,0000.24,0000.19,0000.33,0000.20,20.9,00.0,0643.8,30.6
2020-11-29T02:15:00Z,00000380,01000600,0002.49,0001.40,0000.37,-000.21,0000.38,0000.06,0000.30,0000.08,0000.20,20.9,00.0,0643.8,30.6
2020-11-29T02:16:00Z,00000380,01000600,0001.50,0001.14,0000.63,0001.36,-000.25,0000.18,0000.00,0000.14,-000.03,20.9,00.0,0643.8,30.6
2020-11-29T02:17:00Z,00000380,01000600,0002.36,0000.81,0000.30,0000.77,0000.34,0000.03,-000.07,-000.17,0000.05,20.9,00.0,0643.8,30.6
2020-11-29T02:18:00Z,00000380,01000600,0001.46,0001.31,0000.44,0000.31,0000.16,-000.13,0000.03,-000.07,-000.12,20.9,00.0,0643.8,30.6
2020-11-29T02:19:00Z,00000380,01000600,0001.07,0001.18,0000.05,0000.44,0000.31,-000.00,-000.25,-000.07,-000.09,20.9,00.0,0643.9,30.6
2020-11-29T02:20:00Z,00000380,01000600,0001.23,0000.69,0000.40,0001.33,-000.20,0000.05,-000.02,-000.07,-000.10,20.8,00.0,0643.8,30.6
2020-11-29T02:21:00Z,00000380,01000600,0001.07,0000.99,0000.70,0000.17,0000.33,0000.10,-000.10,0000.14,0000.01,20.8,00.0,0643.8,30.6
2020-11-29T02:22:00Z,00000380,01000600,0001.70,0001.13,0000.85,0000.99,0000.24,-000.10,0000.12,-000.10,0000.08,20.8,00.0,0643.8,30.6
2020-11-29T02:23:00Z,00000380,01000600,0001.79,0001.09,0000.93,0000.21,0000.14,0000.15,0000.10,0000.22,0000.20,20.8,00.0,0643.8,30.6
2020-11-29T02:24:00Z,00000380,01000600,0001.90,0001.32,0000.37,0000.59,0000.27,-000.02,0000.26,0000.07,-000.01,20.8,00.0,0643.8,30.5
2020-11-29T02:25:00Z,00000380,01000600,0002.44,0000.87,0000.59,-000.12,0000.24,0000.14,0000.21,0000.21,0000.26,20.8,00.0,0643.8,30.5
2020-11-29T02:26:00Z,00000380,01000600,0001.48,0000.97,0000.60,0000.30,0000.37,0000.06,0000.20,0000.15,0000.06,20.8,00.0,0643.8,30.5
2020-11-29T02:27:00Z,00000380,01000600,0001.00,0000.76,0000.87,0000.51,0000.17,-000.12,-000.04,0000.11,0000.10,20.8,00.0,0643.9,30.5
2020-11-29T02:28:00Z,00000380,01010600,0001.94,0001.23,0000.51,0000.66,0000.42,0000.01,0000.23,0000.32,0000.09,20.8,00.0,0643.9,30.5
2020-11-29T02:29:00Z,00000380,01000600,0000.79,0001.15,0000.22,0000.70,-000.29,0000.07,0000.28,0000.07,0000.36,20.8,00.0,0643.9,30.5
2020-11-29T02:30:00Z,00000380,01000600,0002.13,0001.61,0000.87,0000.88,-000.13,0000.07,0000.25,0000.30,0000.09,20.8,00.0,0643.9,30.5
2020-11-29T02:31:00Z,00000380,01000600,0002.60,0001.34,0000.83,0001.11,0000.29,0000.09,0000.22,0000.08,0000.25,20.8,00.0,0643.9,30.5
2020-11-29T02:32:00Z,00000380,01000600,0001.97,0001.53,0000.65,0001.14,0000.02,0000.33,0000.09,0000.19,0000.02,20.8,00.0,0643.9,30.5
2020-11-29T02:33:00Z,00000380,01000600,0001.23,0000.77,0000.85,0000.27,-000.38,-000.16,0000.13,0000.10,0000.04,20.8,00.0,0643.9,30.6
2020-11-29T02:34:00Z,00000380,01000600,0001.31,0000.83,0000.82,0001.19,0000.02,0000.60,0000.10,-000.01,0000.11,20.8,00.0,0643.9,30.6
2020-11-29T02:35:00Z,00000380,01000600,0000.62,0001.24,0000.82,-000.22,-000.31,-000.01,-000.02,0000.30,0000.16,20.7,00.0,0643.9,30.6
2020-11-29T02:36:00Z,00000380,01000600,0000.62,0000.73,0000.96,0001.08,-000.03,0000.01,0000.50,0000.13,0000.23,20.8,00.0,0643.9,30.6
2020-11-29T02:37:00Z,00000380,01000600,0001.78,0000.78,0001.16,0000.29,0000.14,0000.21,0000.08,0000.04,-000.08,20.7,00.0,0643.8,30.5
2020-11-29T02:38:00Z,00000380,01000600,0000.98,0001.70,0000.83,-000.17,0000.09,-000.35,0000.02,0000.06,0000.10,20.7,00.0,0643.9,30.5
2020-11-29T02:39:00Z,00000380,01000600,0001.89,0001.79,0000.69,0000.65,0000.11,-000.11,0000.11,0000.20,0000.19,20.7,00.0,0643.9,30.5
2020-11-29T02:40:00Z,00000380,01000600,0002.16,0001.49,0001.03,0000.24,0000.42,0000.31,0000.21,0000.08,0000.03,20.7,00.0,0643.9,30.5
2020-11-29T02:41:00Z,00000380,01000600,0002.59,0001.49,0000.83,0001.30,0000.09,0000.29,0000.04,0000.27,-000.03,20.7,00.0,0643.9,30.5
2020-11-29T02:42:00Z,00000380,01000600,0001.39,0001.35,0000.86,0000.99,0000.45,0000.25,0000.17,0000.16,0000.34,20.7,00.0,0643.9,30.5
2020-11-29T02:43:00Z,00000380,01000600,0001.51,0001.43,0000.34,0000.25,0000.02,0000.11,0000.30,0000.32,0000.20,20.7,00.0,0644.0,30.5
2020-11-29T02:44:00Z,00000380,01000600,0002.50,0001.34,0000.84,0000.60,-000.07,0000.18,0000.13,-000.16,0000.04,20.7,00.0,0644.0,30.5
2020-11-29T02:45:00Z,00000380,01000600,0002.57,0000.79,0000.77,0000.03,0000.05,0000.11,-000.10,0000.00,-000.04,20.7,00.0,0644.0,30.5
2020-11-29T02:46:00Z,00000380,01000600,0002.09,0001.33,0001.26,0000.40,-000.26,-000.22,0000.05,0000.14,0000.04,20.7,00.0,0644.0,30.5
2020-11-29T02:47:00Z,00000380,01000600,0002.28,0001.06,0000.94,0000.44,0000.00,0000.09,-000.08,-000.09,-000.07,20.7,00.0,0644.0,30.6
2020-11-29T02:48:00Z,00000380,01000600,0000.86,0001.44,0000.82,0000.37,0000.15,0000.41,-000.07,-000.07,-000.01,20.7,00.0,0644.0,30.6
2020-11-29T02:49:00Z,00000380,01000600,0000.06,0000.87,0000.58,0000.14,0000.09,-000.18,-000.19,-000.10,-000.17,20.7,00.0,0644.0,30.6
2020-11-29T02:50:00Z,00000380,01000600,0001.88,0000.86,0000.58,-000.12,0000.22,-000.09,-000.10,-000.14,0000.14,20.7,00.0,0643.9,30.6
2020-11-29T02:51:00Z,00000380,01000600,0002.24,0000.85,0000.67,0001.24,0000.11,0000.00,0000.08,0000.02,-000.17,20.7,00.0,0643.9,30.6
2020-11-29T02:52:00Z,00000380,01000600,0002.15,0001.15,0000.93,0000.53,0000.29,0000.05,-000.02,-000.03,-000.01,20.6,00.0,0643.9,30.5
2020-11-29T02:53:00Z,00000380,01000600,0001.86,0001.25,0000.69,0000.46,0000.24,0000.11,-000.04,-000.09,-000.02,20.6,00.0,0644.0,30.5
2020-11-29T02:54:00Z,00000380,01000600,0002.37,0001.03,0000.71,0000.40,0000.16,0000.13,0000.00,0000.09,0000.06,20.6,00.0,0644.0,30.5
2020-11-29T02:55:00Z,00000380,01000600,0001.94,0001.47,0000.70,0001.14,0000.08,-000.20,0000.12,-000.02,-000.10,20.6,00.0,0644.0,30.5
2020-11-29T02:56:00Z,00000380,01000600,0002.04,0001.36,0000.63,-000.35,0000.02,-000.10,-000.14,-000.03,0000.09,20.6,00.0,0644.0,30.5
2020-11-29T02:57:00Z,00000380,41000600,,,,,,,,,,20.7,00.0,0644.1,30.5
2020-11-29T02:58:00Z,00000380,61000600,,,,,,,,,,20.8,00.0,0643.1,30.5
2020-11-29T02:59:00Z,00000380,21000600,,,,,,,,,,20.9,00.0,0643.1,30.5
2020-11-29T03:00:00Z,00000380,21000600,,,,,,,,,,20.9,00.0,0643.1,30.5
2020-11-29T03:01:00Z,00000380,21000600,,,,,,,,,,20.9,00.0,0643.1,30.5
2020-11-29T03:02:00Z,00000380,21000600,,,,,,,,,,21.0,00.0,0643.1,30.5
2020-11-29T03:03:00Z,00000380,61000600,,,,,,,,,,21.0,00.0,0643.2,30.5
2020-11-29T03:04:00Z,00000380,41000600,0001.90,0000.88,0001.23,0000.86,-000.02,0000.52,-000.02,0000.11,0000.09,20.8,00.0,0644.1,30.5
2020-11-29T03:05:00Z,00000380,01000600,0001.51,0000.74,0000.70,0000.20,0000.08,-000.06,-000.11,0000.08,-000.05,20.7,00.0,0644.1,30.6
2020-11-29T03:06:00Z,00000380,01000600,0000.23,0000.98,0001.04,0001.21,-000.12,0000.46,0000.27,-000.02,0000.11,20.7,00.0,0644.1,30.6
2020-11-29T03:07:00Z,00000380,01000600,0001.36,0001.26,0000.37,-000.80,0000.05,0000.20,0000.14,0000.19,0000.02,20.6,00.0,0644.1,30.5
2020-11-29T03:08:00Z,00000380,01000600,0000.54,0001.38,0000.48,-000.40,-000.19,-000.09,-000.05,-000.12,0000.03,20.6,00.0,0644.1,30.5
2020-11-29T03:09:00Z,00000380,01000600,0001.94,0000.86,0000.89,0000.43,0000.10,0000.46,-000.07,-000.02,0000.04,20.6,00.0,0644.1,30.5
2020-11-29T03:10:00Z,00000380,01000600,-000.79,0000.45,0000.65,0000.40,-000.10,0000.16,0000.07,0000.11,-000.05,20.6,00.0,0644.1,30.5